Showing default

QIANFAN-25, 61558

Orbit data source: Space-Track

QIANFAN-25, 61558 is a Chinese payload satellite in LEO that was launched on Tue, 15 Oct 2024 UTC via a CHANG ZHENG 6A launch vehicle from the Taiyaun Space Center, China (TSC). Payload-class satellites include a variety of spacecraft equipped with specific instruments for various scientific and technological missions. These include communications satellites like Starlink; space stations such as the ISS; scientific satellites like the Hubble; Earth observation satellites from companies like Planet Labs, Umbra, and HawkEye 360; GPS; miniature CubeSats for education and research; and military/defense satellites.

Loading next visibility...
Identifier
61558, 2024-185G
Orbit
LEO
Country
Flag of CNCN / PRC
Related business
Manufacturer
GESIH/SECM
Mission
Operational Commercial Communications
Bus & Motor
QIANFAN, Unknown motor
Mass
267 kg wet, ~267 kg dry
Launch date (UTC)
2024-10-15 (11 months ago)
Launch vehicle
CHANG ZHENG 6A
Launch site
Taiyaun Space Center, China (TSC)
Object type
Payload
Rocket body
Debris
Shape & HBR
Box + 1 Pan, 5.0 m
Radar Cross Section
13.200 m², Large (>1 m²)

Expand to show TLE details & history
Last TLE update: 10 hours ago

TLE from 10 hours ago
0 QIANFAN-25
1 61558U 24185G   25258.53553827  .00000401  00000-0  23705-3 0  9990
2 61558  88.9736  88.1789 0007658 204.8796 155.2018 14.05787836 57116
Epoch: 2025-09-15T12:51Z
TLE epoch observation values (Epoch: 2025-09-15T12:51:10.506Z)
Latitude
-0.00002°
Longitude
-99.35367°
Altitude
881.897 km
Speed
7.409 km/s
True Right ascension
05h 52m 42s
True Declination
0° 00' 00"
Sunlit
Object was in daylight at epoch
Visualization orbit readout
Latitude
Unknown
Longitude
Unknown
Altitude
Unknown
Speed
Unknown
Apparent Right ascension
Unknown
Apparent Declination
Unknown
Sunlit
N/A
Visualization observer readout
Local Sidereal Time
15:59:56
Azimuth
Unknown
Elevation
Unknown
Doppler factor
Unknown
Orbital elements
Apogee altitude
876.345 km
Perigee altitude
865.242 km
Semi-major axis
7,248.93 km
Eccentricity
0.00077
Inclination
88.9736°
RAAN
88.1789°
Arg. of periapsis
204.8796°
True anomaly
155.23857°
Mean anomaly
155.2018°
Eccentric anomaly
155.22019°
Mean motion
3.51668 °/min
Orbital period
102.37 mins
BSTAR
0.00023705
Loading maneuver chart data...
Computing Atmospheric mass density...
Loading historical data...
Loading historical data...
Loading historical data...
Loading historical data...
Loading historical data...
Loading historical data...
Loading historical data...

Documentation

Showing up to 5 results
|